Regional Weather Roundup
Issued by NWS

Home | Current Version | Previous Version | Text Only | Print | Product List | Glossary Off
Versions: 1 2 3 4 5 6 7 8 9 10 11 12 13 14 15 16 17 18 19 20 21 22 23 24 25 26 27 28 29 30 31 32 33 34 35 36 37 38 39 40 41 42 43 44 45 46 47 48 49 50

000
ASUS43 KMKX 051700
RWRWI

WISCONSIN REGIONAL WEATHER ROUNDUP
NATIONAL WEATHER SERVICE MILWAUKEE/SULLIVAN WI
1100 AM CST MON DEC 05 2016

NOTE: "FAIR" INDICATES FEW OR NO CLOUDS BELOW 12,000 FEET WITH NO
SIGNIFICANT WEATHER AND/OR OBSTRUCTIONS TO VISIBILITY.

WIZ001-002-006>008-014>016-023>028-051800-
NORTHWEST WISCONSIN

CITY           SKY/WX    TMP DP  RH WIND       PRES   REMARKS
SUPERIOR ARPT  NOT AVBL
ASHLAND        MOSUNNY   37  30  75 VRB6      29.82F WCI  32
HAYWARD        CLOUDY    31  28  89 SE5       29.82S WCI  26
SIREN          MOSUNNY   32  31  98 SE7       29.80F WCI  25
CUMBERLAND     FOG       28  28 100 SE6       29.82R VSB 1/2 WCI  22
RICE LAKE      FOG       29  29  98 SE6       29.84F VSB 1/2 WCI  23
CHETEK         FOG       29  29  99 SE8       29.84S VSB 1/2 WCI  21
LADYSMITH      FOG       31  31  99 SE6       29.86S VSB 1/2 WCI  26
EAU CLAIRE     NOT AVBL
MENOMONIE      CLOUDY    32  32 100 E7        29.84S FOG     WCI  26
NEW RICHMOND   CLOUDY    31  31 100 E9        29.79F FOG     WCI  23
OSCEOLA        PTSUNNY   32  32 100 SE13      29.81F WCI  22
$$

WIZ003>005-009-010-017-018-051800-
NORTH CENTRAL WISCONSIN

CITY           SKY/WX    TMP DP  RH WIND       PRES   REMARKS
MANITOWISH WTR MOSUNNY   32  30  92 SW5       29.81S WCI  27
ARBOR VITAE    MOSUNNY   34  30  86 SW5       29.82S WCI  30
WOODRUFF       MOSUNNY   34  30  86 SW5       29.82S WCI  30
RHINELANDER    SUNNY     34  29  82 CALM      29.84S
EAGLE RIVER    MOSUNNY   33  26  77 SW6       29.82S WCI  27
LAND O LAKES   NOT AVBL
PHILLIPS       CLOUDY    30  29  95 S7        29.83R WCI  23
TOMAHAWK       CLOUDY    32  28  84 CALM      29.85S
MEDFORD        CLOUDY    29  29  98 SE7       29.84S FOG     WCI  22
MERRILL        CLOUDY    32  30  92 S7        29.88R WCI  26
$$

WIZ029-030-035-036-043>047-051800-
CENTRAL WISCONSIN

CITY           SKY/WX    TMP DP  RH WIND       PRES   REMARKS
WAUSAU         CLOUDY    32  30  92 S5        29.86F WCI  27
MOSINEE        PTSUNNY   32  30  93 S7        29.89S WCI  26
MARSHFIELD     CLOUDY    32  29  88 S10       29.86S WCI  24
STEVENS POINT  CLOUDY    31  30  97 S7        29.89F WCI  24
WAUPACA        CLOUDY    36  31  83 CALM      29.92F
WAUTOMA        CLOUDY    35  31  85 S8        29.92F WCI  29
WISC RAPIDS    CLOUDY    33  32  96 SW7       29.91R WCI  27
CAMP DOUGLAS   NOT AVBL
$$

WIZ011>013-019>022-031-037>040-048>050-051800-
NORTHEAST WISCONSIN

CITY           SKY/WX    TMP DP  RH WIND       PRES   REMARKS
ANTIGO         MOSUNNY   32  29  87 SW7       29.86R WCI  26
SHAWANO        CLOUDY    37  31  81 SW9       29.91S WCI  30
OCONTO         NOT AVBL
STURGEON BAY   CLOUDY    38  32  79 SW9       29.92S WCI  31
GREEN BAY      CLOUDY    36  31  82 SW10      29.93S WCI  28
MANITOWOC      NOT AVBL
APPLETON       CLOUDY    34  32  93 SW10      29.91S WCI  26
CLINTONVILLE   CLOUDY    34  30  86 SW9       29.91S WCI  26
OSHKOSH        CLOUDY    34  31  88 S9        29.93S WCI  27
$$

WIZ032>034-041-042-053>061-051800-
SOUTHWEST WISCONSIN

CITY           SKY/WX    TMP DP  RH WIND       PRES   REMARKS
LA CROSSE      CLOUDY    36  33  89 S8        29.88S WCI  30
SPARTA         NOT AVBL
VIROQUA        CLOUDY    32  32 100 S10       29.87S VSB 1   WCI  24
BOSCOBEL       CLOUDY    36  32  85 VRB5      29.93S WCI  32
PRAIRIE DU CHI CLOUDY    34  31  91 SE6       29.92S FOG     WCI  29
PLATTEVILLE    CLOUDY    32  32 100 S12       29.94R VSB 3/4 WCI  23
$$

WIZ056-057-062-063-064-067-068-051800-
SOUTH CENTRAL WISCONSIN

CITY           SKY/WX    TMP DP  RH WIND       PRES   REMARKS
REEDSBURG      CLOUDY    33  33 100 S7        29.91S FOG     WCI  26
BARABOO/DELLS  FOG       33  32  98 S9        29.91S VSB 1   WCI  25
LONE ROCK      NOT AVBL
MINERAL POINT  FOG       34  34 100 S8        29.93R VSB<1/4 WCI  27
MADISON        CLOUDY    33  31  92 S14       29.94S FOG     WCI  23
MIDDLETON      NOT AVBL
WATERTOWN      NOT AVBL
MONROE         SNOW      32  32 100 S15       29.95R VSB<1/4 WCI  22
JANESVILLE     CLOUDY    34  34 100 S12       29.97S FOG     WCI  25
$$

WIZ051-052-058>065-066-070>072-051800-
SOUTHEAST WISCONSIN

CITY           SKY/WX    TMP DP  RH WIND       PRES   REMARKS
MILWAUKEE      CLOUDY    34  31  88 S8        29.98F FOG     WCI  27
WAUKESHA       CLOUDY    32  30  93 S7        29.98S FOG     WCI  26
MILWAUKEE/TIMM CLOUDY    34  28  80 S7        29.99S FOG     WCI  28
RACINE         CLOUDY    33  30  88 S7        30.00F FOG     WCI  27
BURLINGTON     CLOUDY    33  32  96 S8        29.98F FOG     WCI  26
KENOSHA        CLOUDY    33  31  92 S12       30.00S FOG     WCI  24
FOND DU LAC    CLOUDY    34  30  85 S9        29.94S WCI  27
SHEBOYGAN      CLOUDY    34  30  85 SW8       29.96S WCI  27
WEST BEND      CLOUDY    32  32 100 SW6       29.96F WCI  26
JUNEAU         CLOUDY    32  31  97 S13       29.96S FOG     WCI  22
$$

LSZ147-162-051800-
LAKE SUPERIOR

STATION/POSITION TIME  TEMP    WIND        PRES    WAVE
                       AIR SEA DIR/SP/G            HT/PER
                 (UTC) (F)     (DEG/KT/KT) (MB)    (FT/S)
DEVILS ISLAND    1600   36     250/ 16/ 19 1010.5R
PORT WING        1640   36     150/  1/  3 1010.2R
SAXON HARBOR     1630   38     210/  5/  8 1010.2S
$$

LMZ867-665-643>646-051800-
LAKE MICHIGAN

STATION/POSITION TIME  TEMP    WIND        PRES    WAVE
                       AIR SEA DIR/SP/G            HT/PER
                 (UTC) (F)     (DEG/KT/KT) (MB)    (FT/S)
CHAMBERS ISLAND  1640   38     200/  8/ 11 1012.5R
NORTHPORT PIER   1640   39     260/  2/  9 1012.9R
SISTER BAY       1609   47     280/ 14/ 15   N/A
ALGOMA LAKESHORE 1551          260/ 12/ 15   N/A
KEWAUNEE LAKESHO 1630   35     230/  3/  7 1013.4F
SHEBOYGAN LAKESH 1600   34     200/ 10/ 11 1015.2R
PORT WASHINGTON  1640   36     220/  6/  9 1016.3S
MILWAUKEE LAKESH 1630   34     220/  9/ 10   N/A
KENOSHA   LAKESH 1600   33     210/  8/ 12 1016.6
$$

TC  - TEMPERATURE IN CELSIUS
VSB - VISIBILITY IN STATUTE MILES
WCI - WIND CHILL INDEX
HX  - HEAT INDEX





USA.gov is the U.S. government's official web portal to all federal, state and local government web resources and services.